Regional Weather Roundup
Issued by NWS

Home | Current Version | Previous Version | Text Only | Print | Product List | Glossary On
Versions: 1 2 3 4 5 6 7 8 9 10 11 12 13 14 15 16 17 18 19 20 21 22 23 24 25 26 27 28 29 30 31 32 33 34 35 36 37 38 39 40 41 42 43 44 45 46 47 48 49 50
000
ASHW40 PHFO 261743
RWRHI

WEATHER ROUNDUP FOR HAWAII
NATIONAL WEATHER SERVICE HONOLULU HI
700 AM HST SUN APR 26 2015

THIS IS AN AUTOMATED REPORT THAT HAS NOT BEEN QUALITY CONTROLLED.

NOTE..."FAIR" INDICATES FEW OR NO CLOUDS BELOW 12,000 FEET WITH NO
SIGNIFICANT WEATHER AND/OR OBSTRUCTIONS TO VISIBILITY.

* - THESE SITES REPORT LIMITED FIELDS

HIZ001>004-261800-
KAUAI-NIIHAU-

CITY           SKY/WX    TMP DP  RH WIND       PRES   REMARKS
LIHUE APT      CLOUDY    71  69  93 N7        29.99R FOG
PORT ALLEN*      N/A     73 N/A N/A NE3         N/A
POIPU*           N/A     73 N/A N/A NE2         N/A
PRINCEVILLE*     N/A     70 N/A N/A MISG        N/A
KOKOLE POINT*  NOT AVBL
MOLOAA DAIRY*  NOT AVBL
WAIMEA HTS*      N/A     72  72 100 CALM        N/A
PUU OPAE*        N/A     68  64  88 N5          N/A
PUU LUA*       NOT AVBL
MAKAHA RIDGE*    N/A     66  66 100 N1          N/A
$$

HIZ005>011-261800-
OAHU-

CITY           SKY/WX    TMP DP  RH WIND       PRES   REMARKS
HONOLULU       PTSUNNY   73  70  90 S10       29.98R
KALAELOA       CLOUDY    76  70  82 S8        29.99R
KANEOHE MCB    CLOUDY    78  67  68 SW8       29.95R
WHEELER FIELD  FAIR      72  69  92 S5        29.98
BELLOWS*         N/A    N/A N/A N/A SW3         N/A
KAHUKU*          N/A    N/A N/A N/A SW2         N/A
WHEELER*       NOT AVBL
WAIANAE HARBOR NOT AVBL
DILLINGHAM*      N/A     75  68  78 MISG        N/A
KAHUKU TRN*      N/A     72  63  73 S1          N/A
KAWAILOA*        N/A     70  68  94 S3G15       N/A
KII*             N/A     75  68  78 SW3         N/A
MAKUA RANGE*     N/A     77  68  73 SW3G13      N/A
OAHU FOREST NW   N/A    N/A N/A N/A CALM        N/A
SCHOFIELD BRK*   N/A     70  63  78 MISG        N/A
SCHOFIELD S*   NOT AVBL
WAIANAE VLY*     N/A     72  70  94 SE2         N/A
KUAOKALA*        N/A     73  70  88 SE8G23      N/A
HONOULIUULI*   NOT AVBL
MOKUOLOE IS*     N/A    N/A N/A N/A MISG        N/A
PALEHUA*         N/A     66  64  94 S5G12       N/A
WAIAWA PHB*    NOT AVBL
$$

HIZ012>013-261800-
MOLOKAI-

CITY           SKY/WX    TMP DP  RH WIND       PRES   REMARKS
MOLOKAI AIRPT  PTSUNNY   72  70  93 S5        29.99R
KALAUPAPA      NOT AVBL
MAKAPULAPAI*     N/A     79  68  69 S5G12       N/A
MOLOKAI 1*       N/A     64  64 100 CALM        N/A
PUU ALII*        N/A     57  55  92 CALM        N/A
$$

HIZ016-261800-
KAHOOLAWE-

CITY           SKY/WX    TMP DP  RH WIND       PRES   REMARKS
KAHOOLAWE*       N/A     70 N/A N/A W2          N/A
HAKIOAWA*        N/A     73  70  91 MISG      30.43R
HONOKANAIA*      N/A     74  69  85 NE1         N/A
KANELOA*         N/A     70  66  88 MISG        N/A
KEALIALALO*      N/A     73  70  88 SW2         N/A
LUA MAKIKA*    NOT AVBL
$$

HIZ014>015-261800-
LANAI-

CITY           SKY/WX    TMP DP  RH WIND       PRES   REMARKS
LANAI CITY     PTSUNNY   70  70 100 S5        30.05R
LANAI 1*         N/A     72  68  88 S6          N/A
$$

HIZ017>028-261800-
MAUI-

CITY           SKY/WX    TMP DP  RH WIND       PRES   REMARKS
KAHULUI        SUNNY     70  66  87 SW3       29.99R
KAPALUA-W MAUI MOSUNNY   72  64  78 VRB3      29.99R
HANA AIRPORT   SUNNY     75  68  78 CALM      30.02R
HANA*            N/A     70 N/A N/A S3          N/A
HALEAKALA SUMM   N/A     48  36  61 NW16        N/A
MAALAEA BAY*   NOT AVBL
HALEAKALA*     NOT AVBL
KAUPO GAP*       N/A     57  45  62 N6G12       N/A
KULA 1*          N/A     51  46  83 NE3         N/A
$$

HIZ023>026-261800-
BIG ISLAND OF HAWAII COAST AND LOWER SLOPES-

CITY           SKY/WX    TMP DP  RH WIND       PRES   REMARKS
KAILUA KONA    SUNNY     75  65  70 NE5       29.98R
HILO           PTSUNNY   71  62  73 SW7       30.00R
HONOKAA*       NOT AVBL
KAWAIHAE MWT*    N/A     73 N/A N/A SE2         N/A
KAWAIHAE*        N/A     79 N/A N/A S1          N/A
SOUTH POINT*     N/A     68 N/A N/A NE9         N/A
UPOLU AIRPORT*   N/A    N/A N/A N/A S2          N/A
KAMUELA*       SUNNY     70  59  68 CALM      30.10S
HAKALAU*         N/A     51  48  88 W3          N/A
KALOKO-HONOKO*   N/A     77  64  65 NE5       29.98R
PALI 2*          N/A     63  63 100 N5          N/A
KEALAKOMO*       N/A     73  68  83 N3          N/A
KAUPULEHU*       N/A     75  68  78 E3          N/A
KAPAPALA*        N/A     61  59  94 N3          N/A
LOWER KAHUKU*    N/A     61  57  88 VRB3        N/A
PUHE CS*         N/A     73  57  56 E3          N/A
PUHO CS*         N/A     70  57  63 E2          N/A
PTA KEAMUKU*     N/A     61  55  82 CALM        N/A
WAIKOLOA*        N/A     77  63  61 E3          N/A
$$

HIZ027>028-261800-
BIG ISLAND OF HAWAII INTERIOR AND SUMMMITS-

CITY           SKY/WX    TMP DP  RH WIND       PRES   REMARKS
BRADSHAW FIELD SUNNY     53  42  65 SE3       30.30R
MK VISITOR CEN NOT AVBL
MAUNA KEA*       N/A     37   0  20 NW12        N/A  WCI  30
MAUNA LOA*       N/A    N/A N/A N/A MISG        N/A
MAUNA LOA 1*   NOT AVBL
PTA KIPUKA*      N/A     55  46  71 E2          N/A
PTA RANGE 17*    N/A     48  41  76 E5          N/A
PTA WEST*        N/A    N/A N/A N/A SE9         N/A
NENE CABIN*      N/A     48  43  81 N3          N/A
AHUMOA*          N/A     59  48  67 N7          N/A
PTA PORTABLE*  NOT AVBL
PUU MALI*        N/A     61  46  59 SW3G10      N/A
$$

HIC003-261800-
NORTHWEST ISLANDS-

CITY           SKY/WX    TMP DP  RH WIND       PRES   REMARKS
MIDWAY ISLAND  MOCLDY    64  52  63 E28G33    30.33S
MIDWAY NOS*    NOT AVBL
FRENCH FRIGATE NOT AVBL
$$

PHZ110>124-180-261800-
BUOY REPORTS

STATION/POSITION TIME  TEMP    WIND        PRES    WAVE   SWELL
                       AIR SEA DIR/SP/G            HT/PER HT/DIR
                 (UTC) (F)     (DEG/KT/KT) (MB)    (FT/S) (FT/D)
BUOY 51001       NOT AVBL
BUOY 51101       1700   71 75   10/ 19/ 27 1015.5R   7/10   7/ 50
BUOY 51100       NOT AVBL
BUOY 51002       1700   77 79  120/ 14/ 17 1014.0R   6/ 9   5/ 80
BUOY 51003       1700   78 79  180/ 10/ 10 1014.6R   6/ 9   5
BUOY 51004       1626   76 77  100/ 12/ 14 1015.5R   8/ 9   7/ 80
BARBERS PT BUOY  NOT AVBL
WAIMEA BAY BUOY  1700      78                N/A     4/ 9   2/310
KAILUA BAY BUOY  1700      77                N/A     5/ 9   2/100
LANAI BUOY       1700      78                N/A     3/11   2/210
BARBERS PT 2     1700      78                N/A     5/10   2/180
PAUWELA MAUI     1700      77                N/A     5/ 9   2/ 80
HILO             1700      77                N/A     7/ 9   2/100
KANEOHE BAY BUOY 1700      77                N/A     5/ 9   2/ 70
HANALEI KAUAI    1700      78                N/A     5/ 9   2/ 80
KAHULUI HARBOR   1700   73 78  150/  1/  2 1015.2R
HONOLULU HARBOR  1700   77 79  200/  6/  9 1015.5R
KILO NALU        NOT AVBL
HILO HARBOR      1700   72 76  230/  6/  9 1015.8R
MOKUOLOE         1700      78              1014.6R
NAWILIWILI       1700   71 78  310/  2/  3 1015.5R
WHOTS BUOY       NOT AVBL
BUOY 51028       NOT AVBL
$$

......................KEY........................................
  SKY/WX - SKY CONDITIONS/PRESENT WEATHER
  TMP    - TEMPERATURE IN FAHRENHEIT
  DWPT   - DEWPOINT IN FAHRENHEIT
  RH     - RELATIVE HUMIDITY IN PERCENT
  WIND   - DIRECTION AND SPEED /MPH FOR ISLANDS...KTS FOR BUOYS/
  PRES   - MEAN SEA LEVEL PRESSURE IN INCHES OF HG
  VSB    - VISIBILITY IN MILES
  HX     - HEAT INDEX
  WCI    - WIND CHILL INDEX
  VRB    - VARIABLE WIND DIRECTION
  N/A    - NOT AVAILABLE



USA.gov is the U.S. government's official web portal to all federal, state and local government web resources and services.